Regional Weather Roundup
Issued by NWS

Home | Current Version | Previous Version | Graphics & Text | Print | Product List | Glossary On
Versions: 1 2 3 4 5 6 7 8 9 10 11 12 13 14 15 16 17 18 19 20 21 22 23 24 25 26 27 28 29 30 31 32 33 34 35 36 37 38 39 40 41 42 43 44 45 46 47 48 49 50
000
ASUS43 KIND 260000
RWRIN

WEATHER ROUNDUP FOR INDIANA
NATIONAL WEATHER SERVICE INDIANAPOLIS IN
800 PM EDT TUE JUL 25 2017

NOTE: "FAIR" INDICATES FEW OR NO CLOUDS BELOW 12,000 FEET WITH NO
SIGNIFICANT WEATHER AND/OR OBSTRUCTIONS TO VISIBILITY.

* - STATION DOES NOT REPORT WEATHER SUCH AS PRECIPITATION OR FOG.

+ - STATION NOT QUALITY CONTROLLED BY THE NATIONAL WEATHER SERVICE.
    USE DATA WITH CAUTION...ESPECIALLY DEWPOINT AND RELATIVE
    HUMIDITY OBSERVATIONS.

INZ001>003-010>013-019-020-260100-
NORTHWEST INDIANA

CITY           SKY/WX    TMP DP  RH WIND       PRES   REMARKS
GARY /AIRPORT/ PTSUNNY   77  54  44 SE8       30.15S
MICHIGAN CITY+ MOSUNNY   73  55  53 SE3       30.15F
MONTICELLO +   SUNNY     76  57  51 E6        30.15F
6HR MIN TEMP:  75; 6HR MAX TEMP:  78;

RENSSELAER +   SUNNY     75  54  46 SE8       30.15F

$$

LMZ046-743>745-260100-
SOUTHERN LAKE MICHIGAN

STATION/POSITION TIME  TEMP    WIND        PRES    WAVE
                       AIR SEA DIR/SP/G            HT
                 (UTC) (F)     (DEG/KT/KT) (MB)    (FT)
BURNS HARBOR     2340   78     150/  7/ 13 1021.0F
MICHIGAN CITY    2330   76     110/ 10/ 12   N/A
5NW MICH CITY    2350   76 75  150/ 10/ 14   N/A     1

$$

INZ004-005-014>016-021>024-260100-
NORTH CENTRAL INDIANA

CITY           SKY/WX    TMP DP  RH WIND       PRES   REMARKS
ELKHART        SUNNY     75  54  46 SE7       30.17F
GOSHEN         SUNNY     77  54  44 SE7       30.17F
6HR MIN TEMP:  77; 6HR MAX TEMP:  81;

LOGANSPORT +   SUNNY     73  59  60 E7        30.17F
SOUTH BEND     SUNNY     76  54  46 SE12      30.17F
6HR MIN TEMP:  76; 6HR MAX TEMP:  80;

WARSAW +       SUNNY     73  57  56 SE3       30.18F

$$

INZ006>009-017-018-025>027-260100-
NORTHEAST INDIANA

CITY           SKY/WX    TMP DP  RH WIND       PRES   REMARKS
FORT WAYNE     MOSUNNY   75  58  55 SE6       30.19S
6HR MIN TEMP:  75; 6HR MAX TEMP:  78;

KENDALLVILLE + SUNNY     74  56  52 E5        30.19F

$$

INZ028-029-035-036-043>045-051>053-260100-
WEST CENTRAL INDIANA

CITY           SKY/WX    TMP DP  RH WIND       PRES   REMARKS
GREENCASTLE +  SUNNY     75  61  60 SE3       30.16S
LAFAYETTE      SUNNY     75  59  57 E8        30.14F
6HR MIN TEMP:  75; 6HR MAX TEMP:  80;

TERRE HAUTE    SUNNY     79  65  62 E7        30.14S
6HR MIN TEMP:  79; 6HR MAX TEMP:  83;


$$

INZ030>032-037>040-046>048-054>057-064-065-260100-
CENTRAL INDIANA

CITY           SKY/WX    TMP DP  RH WIND       PRES   REMARKS
COLUMBUS       SUNNY     79  55  44 E5        30.16S
FRANKFORT +    CLOUDY    77  62  60 SE6       30.18F
6HR MIN TEMP:  77; 6HR MAX TEMP:  80;

GREENWOOD *+   SUNNY    N/A N/A N/A E5        30.17S
INDIANAPOLIS   MOSUNNY   77  58  51 SE8       30.15F
6HR MIN TEMP:  77; 6HR MAX TEMP:  81;

-EAGLE CREEK   SUNNY     78  57  48 E7        30.15F
6HR MIN TEMP:  78; 6HR MAX TEMP:  81;

KOKOMO +       SUNNY     75  62  64 E7        30.18F
6HR MIN TEMP:  75; 6HR MAX TEMP:  78;

MT COMFORT *+  SUNNY     75  61  60 E3        30.18S
SHELBYVILLE    SUNNY     77  62  59 E6        30.16S
6HR MIN TEMP:  77; 6HR MAX TEMP:  81;


$$

INZ033-034-041-042-049-050-058-059-260100-
EAST CENTRAL INDIANA

CITY           SKY/WX    TMP DP  RH WIND       PRES   REMARKS
MUNCIE         SUNNY     77  60  55 E8        30.18S
6HR MIN TEMP:  76; 6HR MAX TEMP:  80;

RICHMOND +     CLEAR     73  61  64 NE7       30.20S

$$

INZ060-061-067>069-081>083-085>088-260100-
SOUTHWEST INDIANA

CITY           SKY/WX    TMP DP  RH WIND       PRES   REMARKS
EVANSVILLE     MOSUNNY   84  70  62 E7        30.09S
6HR MIN TEMP:  84; 6HR MAX TEMP:  89;

HUNTINGBURG *+ MOSUNNY   81  71  71 NE7       30.11S
6HR MIN TEMP:  81; 6HR MAX TEMP:  85;


$$

INZ062-063-066-070>080-084-089>092-260100-
SOUTH CENTRAL AND SOUTHEAST INDIANA

CITY           SKY/WX    TMP DP  RH WIND       PRES   REMARKS
BLOOMINGTON    SUNNY     80  60  50 E7        30.15R
6HR MIN TEMP:  80; 6HR MAX TEMP:  84;

MADISON *+     CLEAR     79  57  47 NE5       30.17R
SEYMOUR +      SUNNY     81  63  54 NE5       30.14S

$$





USA.gov is the U.S. government's official web portal to all federal, state and local government web resources and services.